FW7485 Weather Reports


time (UTC)temp
C
wind
direction
speed
KPH
gust
KPH
rain 1hr
cm
rain 24hr
cm
rain mn
cm
humidity
%
barometer
mb
20260507145021 15 0 0.0 3.2 0.00 0.00 0.00 88 1021.0
20260507144544 15 0 0.0 3.2 0.00 0.00 0.00 88 1021.0
20260507144021 15 0 0.0 3.2 0.00 0.00 0.00 88 1021.1
20260507143521 15 0 0.0 0.0 0.00 0.00 0.00 89 1021.0
20260507143050 15 0 0.0 0.0 0.00 0.00 0.00 89 1021.0
20260507142522 15 0 0.0 0.0 0.00 0.00 0.00 89 1020.9
20260507142021 15 0 0.0 0.0 0.00 0.00 0.00 88 1020.9
20260507141541 15 0 0.0 0.0 0.00 0.00 0.00 89 1020.8
20260507141021 15 0 0.0 1.6 0.00 0.00 0.00 89 1020.9
20260507140526 15 0 0.0 1.6 0.00 0.00 0.00 89 1020.8
20260507140040 15 0 0.0 1.6 0.00 0.00 0.00 89 1020.7
20260507135524 15 0 0.0 0.0 0.00 0.00 0.00 90 1020.6
20260507135024 15 0 0.0 1.6 0.00 0.00 0.00 90 1020.5
20260507134538 14 0 0.0 1.6 0.00 0.00 0.00 91 1020.6
20260507134021 14 97 0.0 3.2 0.00 0.00 0.00 92 1020.5
20260507133523 13 0 0.0 3.2 0.00 0.00 0.00 92 1020.6
20260507133045 13 0 0.0 6.4 0.00 0.00 0.00 92 1020.5
20260507132523 13 0 0.0 6.4 0.00 0.00 0.00 92 1020.5
20260507132020 13 0 0.0 0.0 0.00 0.00 0.00 92 1020.4
20260507131545 13 0 0.0 0.0 0.00 0.00 0.00 93 1020.5
20260507131022 13 0 0.0 0.0 0.00 0.00 0.00 93 1020.5
20260507130522 13 0 0.0 0.0 0.00 0.00 0.00 92 1020.4
20260507130057 13 0 0.0 0.0 0.00 0.00 0.00 92 1020.4
20260507125523 13 0 0.0 0.0 0.00 0.00 0.00 92 1020.3
20260507125021 13 0 0.0 0.0 0.00 0.00 0.00 92 1020.3
20260507124550 13 0 0.0 0.0 0.00 0.00 0.00 92 1020.2
20260507124022 13 0 0.0 0.0 0.00 0.00 0.00 92 1020.2
20260507123521 13 0 0.0 0.0 0.00 0.00 0.00 93 1020.1
20260507123048 13 0 0.0 0.0 0.00 0.00 0.00 92 1020.1
20260507122521 13 0 0.0 0.0 0.00 0.00 0.00 92 1020.0
20260507122021 13 0 0.0 0.0 0.00 0.00 0.00 93 1020.1
20260507121556 13 0 0.0 0.0 0.00 0.00 0.00 92 1020.1
20260507121021 13 0 0.0 0.0 0.00 0.00 0.00 92 1020.1
20260507120529 13 0 0.0 0.0 0.00 0.00 0.00 92 1020.0
20260507120045 13 0 0.0 0.0 0.00 0.00 0.00 92 1020.0
20260507115521 13 0 0.0 0.0 0.00 0.00 0.00 92 1020.0
20260507115024 13 0 0.0 0.0 0.00 0.00 0.00 92 1020.1
20260507114545 13 0 0.0 0.0 0.00 0.00 0.00 92 1020.0
20260507114020 13 0 0.0 0.0 0.00 0.00 0.00 92 1020.0
20260507113522 13 0 0.0 0.0 0.00 0.00 0.00 92 1019.9
20260507113040 13 0 0.0 0.0 0.00 0.00 0.00 92 1020.0
20260507112520 13 0 0.0 0.0 0.00 0.00 0.00 92 1020.1
20260507112021 13 0 0.0 0.0 0.00 0.00 0.00 92 1020.0
20260507111538 13 0 0.0 0.0 0.00 0.00 0.00 92 1020.1
20260507111021 13 0 0.0 0.0 0.00 0.00 0.00 92 1020.1
20260507110522 13 0 0.0 0.0 0.00 0.00 0.00 92 1020.1
20260507110036 13 0 0.0 0.0 0.00 0.00 0.00 92 1020.2
20260507105521 13 0 0.0 0.0 0.00 0.00 0.00 92 1020.1
20260507105022 13 0 0.0 0.0 0.00 0.00 0.00 92 1020.2
20260507104544 13 0 0.0 0.0 0.00 0.00 0.00 92 1020.2
20260507104021 13 0 0.0 0.0 0.00 0.00 0.00 91 1020.2
20260507103522 13 0 0.0 0.0 0.00 0.00 0.00 91 1020.3
20260507103044 13 0 0.0 0.0 0.00 0.00 0.00 91 1020.3
20260507102521 13 0 0.0 0.0 0.00 0.00 0.00 92 1020.3
20260507102021 13 0 0.0 0.0 0.00 0.00 0.00 92 1020.3
20260507101548 13 0 0.0 0.0 0.00 0.00 0.00 92 1020.4
20260507101026 13 0 0.0 0.0 0.00 0.00 0.00 92 1020.4
20260507100521 13 0 0.0 0.0 0.00 0.00 0.00 92 1020.3
20260507100049 13 0 0.0 0.0 0.00 0.00 0.00 92 1020.4
20260507095522 13 0 0.0 0.0 0.00 0.00 0.00 92 1020.4
20260507095021 13 0 0.0 0.0 0.00 0.00 0.00 92 1020.5
20260507094536 14 0 0.0 0.0 0.00 0.00 0.00 92 1020.4
20260507094020 14 0 0.0 0.0 0.00 0.00 0.00 92 1020.4
20260507093525 14 0 0.0 0.0 0.00 0.00 0.00 92 1020.5
20260507093043 14 0 0.0 0.0 0.00 0.00 0.00 92 1020.5
20260507092523 14 0 0.0 0.0 0.00 0.00 0.00 92 1020.5
20260507092020 14 0 0.0 0.0 0.00 0.00 0.00 92 1020.5
20260507091542 14 0 0.0 1.6 0.00 0.00 0.00 92 1020.6
20260507091022 14 0 0.0 1.6 0.00 0.00 0.00 92 1020.8
20260507090521 14 0 0.0 1.6 0.00 0.00 0.00 92 1020.7
20260507090047 13 0 0.0 0.0 0.00 0.00 0.00 91 1020.7
20260507085520 14 0 0.0 0.0 0.00 0.00 0.00 91 1020.8
20260507085021 14 0 0.0 0.0 0.00 0.00 0.00 91 1020.8
20260507084545 14 0 0.0 0.0 0.00 0.00 0.00 91 1020.9
20260507084021 14 0 0.0 0.0 0.00 0.00 0.00 91 1021.0
20260507083521 14 0 0.0 0.0 0.00 0.00 0.00 91 1021.0
20260507083051 14 0 0.0 0.0 0.00 0.00 0.00 91 1021.0
20260507082522 14 0 0.0 1.6 0.00 0.00 0.00 91 1021.1
20260507082020 14 0 0.0 1.6 0.00 0.00 0.00 91 1021.2
20260507081552 14 0 0.0 0.0 0.00 0.00 0.00 90 1021.1
20260507081021 15 0 0.0 1.6 0.00 0.00 0.00 90 1021.1
20260507080518 15 0 0.0 1.6 0.00 0.00 0.00 90 1021.2
20260507080045 15 0 0.0 1.6 0.00 0.00 0.00 90 1021.2
20260507075523 15 0 0.0 1.6 0.00 0.00 0.00 90 1021.2
20260507075021 15 0 0.0 1.6 0.00 0.00 0.00 90 1021.2
20260507074547 15 0 0.0 1.6 0.00 0.00 0.00 90 1021.3
20260507074020 15 0 0.0 1.6 0.00 0.00 0.00 90 1021.1
20260507073524 15 84 0.0 1.6 0.00 0.00 0.00 90 1021.2
20260507073050 15 30 0.0 3.2 0.00 0.00 0.00 90 1020.9
20260507072520 15 0 0.0 3.2 0.00 0.00 0.00 90 1021.0
20260507072019 15 0 0.0 3.2 0.00 0.00 0.00 90 1021.1
20260507071537 15 356 0.0 1.6 0.00 0.00 0.00 90 1021.1
20260507071021 15 0 0.0 0.0 0.00 0.00 0.00 90 1021.1
20260507070524 15 0 0.0 0.0 0.00 0.00 0.00 90 1021.1
20260507070046 15 0 0.0 0.0 0.00 0.00 0.00 90 1021.3
20260507065522 15 0 0.0 0.0 0.00 0.00 0.00 90 1021.3
20260507065019 15 0 0.0 0.0 0.00 0.00 0.00 89 1021.4
20260507064543 15 0 0.0 1.6 0.00 0.00 0.00 90 1021.4
20260507064020 15 0 0.0 3.2 0.00 0.00 0.00 89 1021.4
20260507063524 15 0 0.0 3.2 0.00 0.00 0.00 89 1021.4
20260507063048 15 30 0.0 3.2 0.00 0.00 0.00 89 1021.4
20260507062520 15 3 0.0 4.8 0.00 0.00 0.00 89 1021.6
20260507062020 15 342 1.6 4.8 0.00 0.00 0.00 89 1021.5
20260507061539 15 0 0.0 0.0 0.00 0.00 0.00 89 1021.5
20260507061023 15 0 0.0 0.0 0.00 0.00 0.00 89 1021.5
20260507060520 15 0 0.0 0.0 0.00 0.00 0.00 89 1021.5
20260507060038 15 0 0.0 0.0 0.00 0.00 0.00 89 1021.5
20260507055521 15 0 0.0 0.0 0.00 0.00 0.00 89 1021.5
20260507055020 15 0 0.0 0.0 0.00 0.00 0.00 89 1021.5
20260507054544 15 0 0.0 0.0 0.00 0.00 0.00 88 1021.5
20260507054021 15 0 0.0 0.0 0.00 0.00 0.00 88 1021.4
20260507053521 15 0 0.0 0.0 0.00 0.00 0.00 88 1021.5
20260507053044 15 0 0.0 3.2 0.00 0.00 0.00 88 1021.6
20260507052520 16 0 0.0 3.2 0.00 0.00 0.00 88 1021.5
20260507052022 16 305 0.0 3.2 0.00 0.00 0.00 88 1021.4
20260507051543 16 309 0.0 3.2 0.00 0.00 0.00 88 1021.5
20260507051021 16 0 0.0 3.2 0.00 0.00 0.00 87 1021.6
20260507050520 16 0 0.0 1.6 0.00 0.00 0.00 87 1021.6
20260507050041 16 0 0.0 3.2 0.00 0.00 0.00 87 1021.5
20260507045520 16 0 1.6 4.8 0.00 0.00 0.00 87 1021.5
20260507045020 16 0 0.0 4.8 0.00 0.00 0.00 86 1021.4
20260507044539 16 0 1.6 6.4 0.00 0.00 0.00 86 1021.5
20260507044020 16 321 0.0 6.4 0.00 0.00 0.00 86 1021.5
20260507043521 16 324 0.0 6.4 0.00 0.00 0.00 85 1021.4
20260507043044 16 329 1.6 6.4 0.00 0.00 0.00 85 1021.4
20260507042520 16 314 0.0 4.8 0.00 0.00 0.00 85 1021.5
20260507042019 16 0 0.0 4.8 0.00 0.00 0.00 85 1021.4
20260507041546 16 309 0.0 4.8 0.00 0.00 0.00 85 1021.4
20260507041020 16 285 1.6 4.8 0.00 0.00 0.00 85 1021.4
20260507040521 16 331 0.0 11.3 0.00 0.00 0.00 85 1021.3
20260507040044 16 0 1.6 11.3 0.00 0.00 0.00 85 1021.4
20260507035520 16 20 4.8 11.3 0.00 0.00 0.00 85 1021.3
20260507035021 16 335 4.8 9.7 0.00 0.00 0.00 85 1021.2
20260507034539 16 309 4.8 8.0 0.00 0.00 0.00 84 1021.2
20260507034021 16 311 3.2 8.0 0.00 0.00 0.00 84 1021.0
20260507033521 16 328 4.8 8.0 0.00 0.00 0.00 84 1021.1
20260507033046 16 313 3.2 8.0 0.00 0.00 0.00 83 1020.9
20260507032523 16 315 3.2 9.7 0.00 0.00 0.00 83 1020.9
20260507032019 16 330 3.2 9.7 0.00 0.00 0.00 83 1020.8
20260507031542 16 331 4.8 8.0 0.00 0.00 0.00 83 1020.9
20260507031024 16 314 3.2 9.7 0.00 0.00 0.00 82 1020.8
20260507030521 16 314 4.8 9.7 0.00 0.00 0.00 82 1020.8
20260507030046 17 330 4.8 12.9 0.00 0.00 0.00 82 1020.6
20260507025520 17 335 6.4 12.9 0.00 0.00 0.00 82 1020.6
20260507025020 17 289 6.4 11.3 0.00 0.00 0.00 81 1020.6
20260507024544 17 310 4.8 11.3 0.00 0.00 0.00 79 1020.6
20260507024020 17 319 4.8 11.3 0.00 0.00 0.00 79 1020.6
20260507023529 17 283 4.8 11.3 0.00 0.00 0.00 78 1020.6
20260507023042 17 331 4.8 12.9 0.00 0.00 0.00 77 1020.5
20260507022520 17 304 3.2 12.9 0.00 0.00 0.00 76 1020.4
20260507022019 17 328 6.4 12.9 0.00 0.00 0.00 75 1020.4
20260507021546 18 311 6.4 12.9 0.00 0.00 0.00 74 1020.5
20260507021023 18 315 6.4 14.5 0.00 0.00 0.00 74 1020.5
20260507020520 18 314 6.4 14.5 0.00 0.00 0.00 73 1020.4
20260507020041 18 311 4.8 12.9 0.00 0.00 0.00 72 1020.4
20260507015520 19 284 4.8 12.9 0.00 0.00 0.00 71 1020.4
20260507015020 19 311 4.8 9.7 0.00 0.00 0.00 69 1020.4
20260507014553 20 15 4.8 11.3 0.00 0.00 0.00 69 1020.3
20260507014021 20 311 3.2 12.9 0.00 0.00 0.00 66 1020.4
20260507013521 20 304 6.4 12.9 0.00 0.00 0.00 64 1020.4
20260507013048 20 321 6.4 12.9 0.00 0.00 0.00 65 1020.4
20260507012520 20 336 8.0 12.9 0.00 0.00 0.00 65 1020.4
20260507012020 20 314 4.8 14.5 0.00 0.00 0.00 66 1020.3
20260507011541 20 295 6.4 14.5 0.00 0.00 0.00 67 1020.4
20260507011020 20 311 8.0 12.9 0.00 0.00 0.00 67 1020.3
20260507010521 20 306 6.4 14.5 0.00 0.00 0.00 64 1020.3
20260507010038 20 23 6.4 14.5 0.00 0.00 0.00 65 1020.4
20260507005524 20 330 6.4 17.7 0.00 0.00 0.00 62 1020.3
20260507005020 20 12 8.0 17.7 0.00 0.00 0.00 63 1020.3
20260507004540 20 346 6.4 17.7 0.00 0.00 0.00 62 1020.3
20260507004021 21 276 4.8 12.9 0.00 0.00 0.00 65 1020.2
20260507003521 20 31 3.2 19.3 0.00 0.00 0.00 69 1020.3
20260507003043 20 269 6.4 19.3 0.00 0.00 0.00 69 1020.3
20260507002520 20 312 4.8 16.1 0.00 0.00 0.00 69 1020.2
20260507002021 20 305 6.4 16.1 0.00 0.00 0.00 70 1020.2
20260507001546 20 272 4.8 17.7 0.00 0.00 0.00 72 1020.2
20260507001020 20 314 9.7 17.7 0.00 0.00 0.00 70 1020.2
20260507000521 20 315 8.0 17.7 0.00 0.00 0.00 70 1020.1
20260507000042 20 308 8.0 12.9 0.00 0.00 0.00 69 1020.1
20260506235521 20 15 6.4 16.1 0.00 0.00 0.00 68 1020.1
20260506235020 20 285 8.0 16.1 0.00 0.00 0.00 70 1020.1
20260506234538 20 285 4.8 17.7 0.00 0.00 0.00 71 1020.1
20260506234022 20 336 9.7 22.5 0.00 0.00 0.00 69 1020.1
20260506233521 20 307 6.4 22.5 0.00 0.00 0.00 70 1020.0
20260506233035 20 293 6.4 16.1 0.00 0.00 0.00 69 1020.0
20260506232520 20 356 8.0 22.5 0.00 0.00 0.00 70 1020.2
20260506232020 20 297 9.7 22.5 0.00 0.00 0.00 71 1020.1
20260506231551 20 301 9.7 19.3 0.00 0.00 0.00 70 1020.1
20260506231022 20 314 8.0 19.3 0.00 0.00 0.00 72 1020.2
20260506230520 20 321 8.0 24.1 0.00 0.00 0.00 71 1020.2
20260506230055 20 304 8.0 24.1 0.00 0.00 0.00 71 1020.2
20260506225522 20 298 9.7 24.1 0.00 0.00 0.00 70 1020.2
20260506225020 20 300 8.0 22.5 0.00 0.00 0.00 71 1020.3
20260506224541 20 319 9.7 22.5 0.00 0.00 0.00 70 1020.4
20260506224021 20 311 9.7 19.3 0.00 0.00 0.00 70 1020.5
20260506223520 20 293 8.0 19.3 0.00 0.00 0.00 71 1020.4
20260506223050 20 258 11.3 25.7 0.00 0.00 0.00 71 1020.5
20260506222520 20 256 9.7 25.7 0.00 0.00 0.00 71 1020.6
20260506222019 20 332 9.7 22.5 0.00 0.00 0.00 70 1020.6
20260506221538 20 255 11.3 19.3 0.00 0.00 0.00 70 1020.6
20260506221021 20 317 9.7 22.5 0.00 0.00 0.00 69 1020.7
20260506220523 20 306 11.3 22.5 0.00 0.00 0.00 69 1020.6
20260506220037 20 261 9.7 19.3 0.00 0.00 0.00 68 1020.7
20260506215523 20 286 12.9 19.3 0.00 0.00 0.00 69 1020.8
20260506215018 20 268 6.4 20.9 0.00 0.00 0.00 69 1020.8
20260506214545 20 276 8.0 20.9 0.00 0.00 0.00 70 1020.8
20260506214020 20 261 6.4 20.9 0.00 0.00 0.00 69 1020.9
20260506213525 20 315 9.7 20.9 0.00 0.00 0.00 69 1020.9
20260506213101 20 272 11.3 20.9 0.00 0.00 0.00 68 1020.9
20260506212520 20 278 8.0 19.3 0.00 0.00 0.00 67 1021.0
20260506212021 20 233 8.0 19.3 0.00 0.00 0.00 67 1020.9
20260506211557 20 267 4.8 17.7 0.00 0.00 0.00 69 1021.1
20260506211021 20 229 8.0 20.9 0.00 0.00 0.00 68 1021.1
20260506210521 20 308 9.7 20.9 0.00 0.00 0.00 69 1021.1
20260506210041 20 298 9.7 19.3 0.00 0.00 0.00 68 1021.1
20260506205522 20 279 8.0 19.3 0.00 0.00 0.00 69 1021.1
20260506205020 20 312 11.3 19.3 0.00 0.00 0.00 68 1021.2
20260506204545 20 316 9.7 19.3 0.00 0.00 0.00 68 1021.3
20260506204020 20 256 9.7 19.3 0.00 0.00 0.00 68 1021.2
20260506203518 20 295 11.3 19.3 0.00 0.00 0.00 69 1021.2
20260506203035 20 298 9.7 17.7 0.00 0.00 0.00 68 1021.3
20260506202519 20 298 9.7 17.7 0.00 0.00 0.00 68 1021.3
20260506202022 20 280 11.3 24.1 0.00 0.00 0.00 69 1021.3
20260506201556 20 293 11.3 24.1 0.00 0.00 0.00 68 1021.3
20260506201019 20 254 9.7 22.5 0.00 0.00 0.00 69 1021.3
20260506200519 20 300 9.7 22.5 0.00 0.00 0.00 68 1021.3
20260506200044 20 309 8.0 19.3 0.00 0.00 0.00 68 1021.4
20260506195518 20 313 9.7 19.3 0.00 0.00 0.00 67 1021.4
20260506195018 20 311 11.3 19.3 0.00 0.00 0.00 66 1021.5
20260506194546 20 312 11.3 17.7 0.00 0.00 0.00 66 1021.5
20260506194017 20 278 11.3 17.7 0.00 0.00 0.00 65 1021.5
20260506193518 20 307 8.0 17.7 0.00 0.00 0.00 66 1021.6
20260506193038 20 263 8.0 16.1 0.00 0.00 0.00 65 1021.6
20260506192520 20 277 6.4 16.1 0.00 0.00 0.00 66 1021.7
20260506192019 20 317 8.0 16.1 0.00 0.00 0.00 66 1021.7
20260506191547 20 261 8.0 16.1 0.00 0.00 0.00 65 1021.7
20260506191025 20 306 8.0 17.7 0.00 0.00 0.00 65 1021.8
20260506190529 20 321 8.0 17.7 0.00 0.00 0.00 65 1021.9
20260506190043 20 304 9.7 16.1 0.00 0.00 0.00 65 1021.9
20260506185526 21 278 6.4 16.1 0.00 0.00 0.00 65 1021.9
20260506185022 20 303 8.0 16.1 0.00 0.00 0.00 65 1022.0
20260506184539 20 315 6.4 16.1 0.00 0.00 0.00 65 1021.9
20260506184021 20 268 6.4 14.5 0.00 0.00 0.00 66 1022.0
20260506183523 20 5 6.4 14.5 0.00 0.00 0.00 64 1022.0
20260506183058 20 15 8.0 14.5 0.00 0.00 0.00 65 1022.1
20260506182522 20 283 4.8 19.3 0.00 0.00 0.00 66 1022.1
20260506182023 20 277 6.4 19.3 0.00 0.00 0.00 66 1022.1
20260506181544 20 262 6.4 14.5 0.00 0.00 0.00 67 1022.1
20260506181023 20 281 6.4 14.5 0.00 0.00 0.00 66 1022.2
20260506180523 20 252 4.8 11.3 0.00 0.00 0.00 67 1022.2
20260506180048 19 277 1.6 12.9 0.00 0.00 0.00 68 1022.3
20260506175524 19 277 6.4 17.7 0.00 0.00 0.00 67 1022.3
20260506175022 19 293 8.0 17.7 0.00 0.00 0.00 67 1022.2
20260506174544 19 285 4.8 16.1 0.00 0.00 0.00 67 1022.3
20260506174022 19 271 6.4 14.5 0.00 0.00 0.00 68 1022.3
20260506173522 19 305 4.8 14.5 0.00 0.00 0.00 66 1022.4
20260506173048 20 321 4.8 14.5 0.00 0.00 0.00 64 1022.3
20260506172522 20 311 6.4 11.3 0.00 0.00 0.00 63 1022.3
20260506172022 20 288 3.2 12.9 0.00 0.00 0.00 64 1022.5
20260506171539 20 113 3.2 12.9 0.00 0.00 0.00 64 1022.4
20260506171026 20 18 3.2 12.9 0.00 0.00 0.00 63 1022.5
20260506170525 20 51 1.6 8.0 0.00 0.00 0.00 65 1022.4
20260506170106 19 0 1.6 9.7 0.00 0.00 0.00 66 1022.4
20260506165522 18 299 3.2 12.9 0.00 0.00 0.00 67 1022.4
20260506165022 18 71 3.2 12.9 0.00 0.00 0.00 67 1022.4
20260506164543 18 85 0.0 12.9 0.00 0.00 0.00 70 1022.3
20260506164027 17 0 4.8 14.5 0.00 0.00 0.00 69 1022.4
20260506163521 17 317 4.8 14.5 0.00 0.00 0.00 70 1022.4
20260506163057 17 332 4.8 14.5 0.00 0.00 0.00 69 1022.5
20260506162523 17 53 1.6 8.0 0.00 0.00 0.00 70 1022.6
20260506162026 17 24 1.6 11.3 0.00 0.00 0.00 71 1022.5
20260506161541 17 293 4.8 11.3 0.00 0.00 0.00 71 1022.6
20260506161041 17 285 3.2 11.3 0.00 0.00 0.00 71 1022.4
20260506160525 17 95 0.0 6.4 0.00 0.00 0.00 71 1022.5
20260506160048 17 77 1.6 6.4 0.00 0.00 0.00 70 1022.6
20260506155525 17 58 1.6 6.4 0.00 0.00 0.00 70 1022.5
20260506155022 17 0 0.0 6.4 0.00 0.00 0.00 70 1022.5
20260506154548 17 50 1.6 6.4 0.00 0.00 0.00 71 1022.4
20260506154023 17 4 0.0 4.8 0.00 0.00 0.00 71 1022.6
20260506153522 17 0 0.0 4.8 0.00 0.00 0.00 71 1022.5
20260506153044 17 0 0.0 6.4 0.00 0.00 0.00 72 1022.6
20260506152521 16 133 1.6 6.4 0.00 0.00 0.00 72 1022.6
20260506152023 16 48 0.0 6.4 0.00 0.00 0.00 72 1022.6
20260506151544 16 45 3.2 6.4 0.00 0.00 0.00 72 1022.7
20260506151021 16 126 1.6 4.8 0.00 0.00 0.00 72 1022.7
20260506150522 16 0 0.0 4.8 0.00 0.00 0.00 73 1022.7
20260506150039 15 0 0.0 6.4 0.00 0.00 0.00 75 1022.6
20260506145524 15 0 1.6 6.4 0.00 0.05 0.00 75 1022.7